START_TIME,STEP,MOV.,M15,t_acc.,M20,t_acc.
1979-03-09 00:00:41.920 ,2,1,0.,24.0,0.,24.0
1979-03-09 00:01:05.920 ,3,1,0.,24.0,0.,24.0
1979-03-09 00:01:29.920 ,4,1,0.,24.0,0.,24.0
1979-03-09 00:01:53.920 ,5,1,0.,24.0,0.,24.0
1979-03-09 00:02:17.920 ,6,1,0.,24.0,0.,24.0
1979-03-09 00:02:41.920 ,7,1,0.,24.0,0.,24.0
1979-03-09 00:03:05.920 ,7,1,0.,24.0,0.,24.0
1979-03-09 00:03:29.920 ,6,1,0.,24.0,0.,24.0
1979-03-09 00:03:53.920 ,5,1,0.,24.0,0.,24.0
1979-03-09 00:04:17.920 ,4,1,0.,24.0,0.,24.0
1979-03-09 00:04:41.920 ,3,1,0.,24.0,0.,24.0
1979-03-09 00:05:05.920 ,2,1,0.,24.0,0.,24.0
1979-03-09 00:05:29.920 ,1,1,0.,24.0,0.,24.0
1979-03-09 00:05:53.920 ,0,1,0.,24.0,0.,24.0
1979-03-09 00:06:17.920 ,0,1,0.,24.0,0.,24.0
1979-03-09 00:06:41.920 ,1,1,0.,24.0,0.,24.0
1979-03-09 00:07:05.920 ,2,1,0.,24.0,0.,24.0
1979-03-09 00:07:29.920 ,3,1,0.,24.0,0.,24.0
1979-03-09 00:07:53.920 ,4,1,0.,24.0,0.,24.0
1979-03-09 00:08:17.920 ,5,1,0.,24.0,0.,24.0
1979-03-09 00:08:41.920 ,6,1,0.,24.0,0.,24.0
1979-03-09 00:09:05.920 ,7,1,0.,24.0,0.,24.0
1979-03-09 00:09:29.920 ,7,1,0.,24.0,0.,24.0
1979-03-09 00:09:53.920 ,6,1,0.,24.0,0.,24.0
1979-03-09 00:10:17.920 ,5,1,0.,24.0,0.,24.0
1979-03-09 00:10:41.920 ,4,1,0.,24.0,0.,24.0
1979-03-09 00:11:05.920 ,3,1,0.,24.0,0.,24.0
1979-03-09 00:11:29.920 ,2,1,0.,24.0,0.,24.0
1979-03-09 00:11:53.920 ,1,1,0.,24.0,0.,24.0
1979-03-09 00:12:17.920 ,0,1,0.,24.0,0.,24.0
1979-03-09 00:12:41.920 ,0,1,0.,24.0,0.,24.0
1979-03-09 00:13:05.920 ,1,1,0.,24.0,0.,24.0
1979-03-09 00:13:29.920 ,2,1,0.,24.0,0.,24.0
1979-03-09 00:13:53.920 ,3,1,0.,24.0,0.,24.0
1979-03-09 00:14:17.920 ,4,1,0.,24.0,0.,24.0
1979-03-09 00:14:41.920 ,5,1,0.,24.0,0.,24.0
1979-03-09 00:15:05.920 ,6,1,0.,24.0,0.,24.0
1979-03-09 00:15:29.920 ,7,1,0.,24.0,0.,24.0
1979-03-09 00:15:53.920 ,7,1,0.,24.0,0.,24.0
1979-03-09 00:16:17.920 ,6,1,0.,24.0,0.,24.0
1979-03-09 00:16:41.920 ,5,1,0.,24.0,0.,24.0
1979-03-09 00:17:05.920 ,4,1,0.,24.0,0.,24.0
1979-03-09 00:17:29.920 ,3,1,0.,24.0,0.,24.0
1979-03-09 00:17:53.920 ,2,1,0.,24.0,0.,24.0
1979-03-09 00:18:17.920 ,1,1,0.,24.0,0.,24.0
1979-03-09 00:18:41.920 ,0,1,0.,24.0,0.,24.0
1979-03-09 00:19:05.920 ,0,1,0.,24.0,0.,24.0
1979-03-09 00:19:29.920 ,1,1,0.,24.0,0.,24.0
1979-03-09 00:19:53.920 ,2,1,0.,24.0,0.,24.0
1979-03-09 00:20:17.920 ,3,1,0.,24.0,0.,24.0
1979-03-09 00:20:41.920 ,4,1,0.,24.0,0.,24.0
1979-03-09 00:21:05.920 ,5,1,0.,24.0,0.,24.0
1979-03-09 00:21:29.920 ,6,1,0.,24.0,0.,24.0
1979-03-09 00:21:53.920 ,7,1,0.,24.0,0.,24.0
1979-03-09 00:22:17.920 ,7,1,0.,24.0,0.,24.0
1979-03-09 00:22:41.920 ,6,1,0.,24.0,0.,24.0
1979-03-09 00:23:05.920 ,5,1,0.,24.0,0.,24.0
1979-03-09 00:23:29.920 ,4,1,0.,24.0,0.,24.0
1979-03-09 00:23:53.920 ,3,1,0.,24.0,0.,24.0
1979-03-09 00:24:17.920 ,2,1,0.,24.0,0.,24.0
1979-03-09 00:24:41.920 ,1,1,0.,24.0,0.,24.0
1979-03-09 00:25:05.920 ,0,1,0.,24.0,0.,24.0
1979-03-09 00:25:29.920 ,0,1,0.,24.0,0.,24.0
1979-03-09 00:25:53.920 ,1,1,0.,24.0,0.,24.0
1979-03-09 00:26:17.920 ,2,1,0.,24.0,0.,24.0
1979-03-09 00:26:41.920 ,3,1,0.,24.0,0.,24.0
1979-03-09 00:27:05.920 ,4,1,0.,24.0,0.,24.0
1979-03-09 00:27:29.920 ,5,1,0.,24.0,0.,24.0
1979-03-09 00:27:53.920 ,6,1,0.,24.0,0.,24.0
1979-03-09 00:28:17.920 ,7,1,0.,24.0,0.,24.0
1979-03-09 00:28:41.920 ,7,1,0.,24.0,0.,24.0
1979-03-09 00:29:05.920 ,6,1,0.,24.0,0.,24.0
1979-03-09 00:29:29.920 ,5,1,0.,24.0,0.,24.0
1979-03-09 00:29:53.920 ,4,1,0.,24.0,0.,24.0
1979-03-09 00:30:17.920 ,3,1,0.,24.0,0.,24.0
1979-03-09 00:30:41.920 ,2,1,0.,24.0,0.,24.0
1979-03-09 00:31:05.920 ,1,1,0.,24.0,0.,24.0
1979-03-09 00:31:29.920 ,0,1,0.,24.0,0.,24.0
1979-03-09 00:31:53.920 ,0,1,0.,24.0,0.,24.0
1979-03-09 00:32:17.920 ,1,1,0.,24.0,0.,24.0
1979-03-09 00:32:41.920 ,2,1,0.,24.0,0.,24.0
1979-03-09 00:33:05.920 ,3,1,0.,24.0,0.,24.0
1979-03-09 00:33:29.920 ,4,1,0.,24.0,0.,24.0
1979-03-09 00:33:53.920 ,5,1,0.,24.0,0.,24.0
1979-03-09 00:34:17.920 ,6,1,0.,24.0,0.,24.0
1979-03-09 00:34:41.920 ,7,1,0.,24.0,0.,24.0
1979-03-09 00:35:05.920 ,7,1,0.,24.0,0.,24.0
1979-03-09 00:35:29.920 ,6,1,0.,24.0,0.,24.0
1979-03-09 00:35:53.920 ,5,1,0.,24.0,0.,24.0
1979-03-09 00:36:17.920 ,4,1,0.,24.0,0.,24.0
1979-03-09 00:36:41.920 ,3,1,0.,24.0,0.,24.0
1979-03-09 00:37:05.920 ,2,1,0.,24.0,0.,24.0
1979-03-09 00:37:29.920 ,1,1,0.,24.0,0.,24.0
1979-03-09 00:37:53.920 ,0,1,0.,24.0,0.,24.0
1979-03-09 00:38:17.920 ,0,1,0.,24.0,0.,24.0
1979-03-09 00:38:41.920 ,1,1,0.,24.0,0.,24.0
1979-03-09 00:39:05.920 ,2,1,0.,24.0,0.,24.0
1979-03-09 00:39:29.920 ,3,1,0.,24.0,0.,24.0
1979-03-09 00:39:53.920 ,4,1,0.,24.0,0.,24.0
1979-03-09 00:40:17.920 ,5,1,0.,24.0,0.,24.0
1979-03-09 00:40:41.920 ,6,1,0.,24.0,0.,24.0
1979-03-09 00:41:05.920 ,7,1,0.,24.0,0.,24.0
1979-03-09 00:41:29.920 ,7,1,0.,24.0,0.,24.0
1979-03-09 00:41:53.920 ,6,1,0.,24.0,0.,24.0
1979-03-09 00:42:17.920 ,5,1,0.,24.0,0.,24.0
1979-03-09 00:42:41.920 ,4,1,0.,24.0,0.,24.0
1979-03-09 00:43:05.920 ,3,1,0.,24.0,0.,24.0
1979-03-09 00:43:29.920 ,2,1,0.,24.0,0.,24.0
1979-03-09 00:43:53.920 ,1,1,0.,24.0,0.,24.0
1979-03-09 00:44:17.920 ,0,1,0.,24.0,0.,24.0
1979-03-09 00:44:41.920 ,0,1,0.,24.0,0.,24.0
1979-03-09 00:45:05.920 ,1,1,0.,24.0,0.,24.0
1979-03-09 00:45:29.920 ,2,1,0.,24.0,0.,24.0
1979-03-09 00:45:53.920 ,3,1,0.,24.0,0.,24.0
1979-03-09 00:46:17.920 ,4,1,0.,24.0,0.,24.0
1979-03-09 00:46:41.920 ,5,1,0.,24.0,0.,24.0
1979-03-09 00:47:05.920 ,6,1,0.,24.0,0.,24.0
1979-03-09 00:47:29.920 ,7,1,0.,24.0,0.,24.0
1979-03-09 00:47:53.920 ,7,1,0.,24.0,0.,24.0
1979-03-09 00:48:17.920 ,6,1,0.,24.0,0.,24.0
1979-03-09 00:48:41.920 ,5,1,0.,24.0,0.,24.0
1979-03-09 00:49:05.920 ,4,1,0.,24.0,0.,24.0
1979-03-09 00:49:29.920 ,3,1,0.,24.0,0.,24.0
1979-03-09 00:49:53.920 ,2,1,0.,24.0,0.,24.0
1979-03-09 00:50:17.920 ,1,1,0.,24.0,0.,24.0
1979-03-09 00:50:41.920 ,0,1,0.,24.0,0.,24.0
1979-03-09 00:51:05.920 ,0,1,0.,24.0,0.,24.0
1979-03-09 00:51:29.920 ,1,1,0.,24.0,0.,24.0
1979-03-09 00:51:53.920 ,2,1,0.,24.0,0.,24.0
1979-03-09 00:52:17.920 ,3,1,0.,24.0,0.,24.0
1979-03-09 00:52:41.920 ,4,1,0.,24.0,0.,24.0
1979-03-09 00:53:05.920 ,5,1,0.,24.0,0.,24.0
1979-03-09 00:53:29.920 ,6,1,0.,24.0,0.,24.0
1979-03-09 00:53:53.920 ,7,1,0.,24.0,0.,24.0
1979-03-09 00:54:17.920 ,7,1,0.,24.0,0.,24.0
1979-03-09 00:54:41.920 ,6,1,0.,24.0,0.,24.0
1979-03-09 00:55:05.920 ,0,0,,0,,0
1979-03-09 00:55:34.720 ,0,0,0.,24.0,0.,24.0
1979-03-09 00:55:53.920 ,3,1,0.,24.0,0.,24.0
1979-03-09 00:56:17.920 ,2,1,0.,24.0,0.,24.0
1979-03-09 00:56:41.920 ,1,1,0.,24.0,0.,24.0
1979-03-09 00:57:05.920 ,0,1,0.,24.0,0.,24.0
1979-03-09 00:57:29.920 ,0,1,0.,24.0,0.,24.0
1979-03-09 00:57:53.920 ,1,1,0.,24.0,0.,24.0
1979-03-09 00:58:17.920 ,2,1,0.,24.0,0.,24.0
1979-03-09 00:58:41.920 ,3,1,0.,24.0,0.,24.0
1979-03-09 00:59:05.920 ,4,1,0.,24.0,0.,24.0
1979-03-09 00:59:29.920 ,5,1,0.,24.0,0.,24.0
1979-03-09 00:59:53.920 ,6,1,0.,24.0,0.,24.0
1979-03-09 01:00:17.920 ,7,1,0.,24.0,0.,24.0
1979-03-09 01:00:41.930 ,7,1,0.,24.0,0.,24.0
1979-03-09 01:01:05.930 ,6,1,0.,24.0,0.,24.0
1979-03-09 01:01:29.930 ,5,1,0.,24.0,0.,24.0
1979-03-09 01:01:53.930 ,4,1,0.,24.0,0.,24.0
1979-03-09 01:02:17.930 ,3,1,0.,24.0,0.,24.0
1979-03-09 01:02:41.930 ,2,1,0.,24.0,0.,24.0
1979-03-09 01:03:05.930 ,1,1,0.,24.0,0.,24.0
1979-03-09 01:03:29.930 ,0,1,0.,24.0,0.,24.0
1979-03-09 01:03:53.930 ,0,1,0.,24.0,0.,24.0
1979-03-09 01:04:17.930 ,1,1,0.,24.0,0.,24.0
1979-03-09 01:04:41.930 ,2,1,0.,24.0,0.,24.0
1979-03-09 01:05:05.920 ,3,1,0.,24.0,0.,24.0
1979-03-09 01:05:29.930 ,4,1,0.,24.0,0.,24.0
1979-03-09 01:05:53.930 ,5,1,0.,24.0,0.,24.0
1979-03-09 01:06:17.920 ,6,1,0.,24.0,0.,24.0
1979-03-09 01:06:41.930 ,7,1,0.,24.0,0.,24.0
1979-03-09 01:07:05.920 ,7,1,0.,24.0,0.,24.0
1979-03-09 01:07:29.930 ,6,1,0.,24.0,0.,24.0
1979-03-09 01:07:53.930 ,5,1,0.,24.0,0.,24.0
1979-03-09 01:08:17.930 ,4,1,0.,24.0,0.,24.0
1979-03-09 01:08:41.930 ,3,1,0.,24.0,0.,24.0
1979-03-09 01:09:05.930 ,2,1,0.,24.0,0.,24.0
1979-03-09 01:09:29.930 ,1,1,0.,24.0,0.,24.0
1979-03-09 01:09:53.930 ,0,1,0.,24.0,0.,24.0
1979-03-09 01:10:17.930 ,0,1,0.,24.0,0.,24.0
1979-03-09 01:10:41.930 ,1,1,0.,24.0,0.,24.0
1979-03-09 01:11:05.930 ,2,1,0.,24.0,0.,24.0
1979-03-09 01:11:29.930 ,3,1,0.,24.0,0.,24.0
1979-03-09 01:11:53.930 ,4,1,0.,24.0,0.,24.0
1979-03-09 01:12:17.930 ,5,1,0.,24.0,0.,24.0
1979-03-09 01:12:41.930 ,6,1,0.,24.0,0.,24.0
1979-03-09 01:13:05.930 ,7,1,0.,24.0,0.,24.0
1979-03-09 01:13:29.930 ,7,1,0.,24.0,0.,24.0
1979-03-09 01:13:53.930 ,6,1,0.,24.0,0.,24.0
1979-03-09 01:14:17.930 ,5,1,0.,24.0,0.,24.0
1979-03-09 01:14:41.930 ,4,1,0.,24.0,0.,24.0
1979-03-09 01:15:05.930 ,3,1,0.,24.0,0.,24.0
1979-03-09 01:15:29.930 ,2,1,0.,24.0,0.,24.0
1979-03-09 01:15:53.930 ,1,1,0.,24.0,0.,24.0
1979-03-09 01:16:17.930 ,0,1,0.,24.0,0.,24.0
1979-03-09 01:16:41.930 ,0,1,0.,24.0,0.,24.0
1979-03-09 01:17:05.930 ,1,1,0.,24.0,0.,24.0
1979-03-09 01:17:29.930 ,2,1,0.,24.0,0.,24.0
1979-03-09 01:17:53.930 ,3,1,0.,24.0,0.,24.0
1979-03-09 01:18:17.930 ,4,1,0.,24.0,0.,24.0
1979-03-09 01:18:41.930 ,5,1,0.,24.0,0.,24.0
1979-03-09 01:19:05.930 ,6,1,0.,24.0,0.,24.0
1979-03-09 01:19:29.930 ,7,1,0.,24.0,0.,24.0
1979-03-09 01:19:53.930 ,7,1,0.,24.0,0.,24.0
1979-03-09 01:20:17.930 ,6,1,0.,24.0,0.,24.0
1979-03-09 01:20:41.930 ,5,1,0.,24.0,0.,24.0
1979-03-09 01:21:05.930 ,4,1,0.,24.0,0.,24.0
1979-03-09 01:21:29.930 ,3,1,0.,24.0,0.,24.0
1979-03-09 01:21:53.930 ,2,1,0.,24.0,0.,24.0
1979-03-09 01:22:17.930 ,1,1,0.,24.0,0.,24.0
1979-03-09 01:22:41.930 ,0,1,0.,24.0,0.,24.0
1979-03-09 01:23:05.930 ,0,1,0.,24.0,0.,24.0
1979-03-09 01:23:29.930 ,1,1,0.,24.0,0.,24.0
1979-03-09 01:23:53.930 ,2,1,0.,24.0,0.,24.0
1979-03-09 01:24:17.930 ,3,1,0.,24.0,0.,24.0
1979-03-09 01:24:41.930 ,4,1,0.,24.0,0.,24.0
1979-03-09 01:25:05.930 ,5,1,0.,24.0,0.,24.0
1979-03-09 01:25:29.930 ,6,1,0.,24.0,0.,24.0
1979-03-09 01:25:53.930 ,7,1,0.,24.0,0.,24.0
1979-03-09 01:26:17.930 ,7,1,0.,24.0,0.,24.0
1979-03-09 01:26:41.930 ,6,1,0.,24.0,0.,24.0
1979-03-09 01:27:05.930 ,5,1,0.,24.0,0.,24.0
1979-03-09 01:27:29.930 ,4,1,0.,24.0,0.,24.0
1979-03-09 01:27:53.930 ,3,1,0.,24.0,0.,24.0
1979-03-09 01:28:17.930 ,2,1,0.,24.0,0.,24.0
1979-03-09 01:28:41.930 ,1,1,0.,24.0,0.,24.0
1979-03-09 01:29:05.930 ,0,1,0.,24.0,0.,24.0
1979-03-09 01:29:29.930 ,0,1,0.,24.0,0.,24.0
1979-03-09 01:29:53.930 ,1,1,0.,24.0,0.,24.0
1979-03-09 01:30:17.930 ,2,1,0.,24.0,0.,24.0
1979-03-09 01:30:41.930 ,3,1,0.,24.0,0.,24.0
1979-03-09 01:31:05.930 ,4,1,0.,24.0,0.,24.0
1979-03-09 01:31:29.930 ,5,1,0.,24.0,0.,24.0
1979-03-09 01:31:53.930 ,6,1,0.,24.0,0.,24.0
1979-03-09 01:32:17.930 ,7,1,0.,24.0,0.,24.0
1979-03-09 01:32:41.930 ,7,1,0.,24.0,0.,24.0
1979-03-09 01:33:05.930 ,6,1,0.,24.0,0.,24.0
1979-03-09 01:33:29.930 ,5,1,0.,24.0,0.,24.0
1979-03-09 01:33:53.930 ,4,1,0.,24.0,0.,24.0
1979-03-09 01:34:17.930 ,3,1,0.,24.0,0.,24.0
1979-03-09 01:34:41.930 ,2,1,0.,24.0,0.,24.0
1979-03-09 01:35:05.930 ,1,1,0.,24.0,0.,24.0
1979-03-09 01:35:29.930 ,0,1,0.,24.0,0.,24.0
1979-03-09 01:35:53.930 ,0,1,0.,24.0,0.,24.0
1979-03-09 01:36:17.930 ,1,1,0.,24.0,0.,24.0
1979-03-09 01:36:41.930 ,2,1,0.,24.0,0.,24.0
1979-03-09 01:37:05.930 ,3,1,0.,24.0,0.,24.0
1979-03-09 01:37:29.930 ,4,1,0.,24.0,0.,24.0
1979-03-09 01:37:53.930 ,5,1,0.,24.0,0.,24.0
1979-03-09 01:38:17.930 ,6,1,0.,24.0,0.,24.0
1979-03-09 01:38:41.930 ,7,1,0.,24.0,0.,24.0
1979-03-09 01:39:05.930 ,7,1,0.,24.0,0.,24.0
1979-03-09 01:39:29.930 ,6,1,0.,24.0,0.,24.0
1979-03-09 01:39:53.930 ,5,1,0.,24.0,0.,24.0
1979-03-09 01:40:17.930 ,4,1,0.,24.0,0.,24.0
1979-03-09 01:40:41.930 ,3,1,0.,24.0,0.,24.0
1979-03-09 01:41:05.930 ,2,1,0.,24.0,0.,24.0
1979-03-09 01:41:29.930 ,1,1,0.,24.0,0.,24.0
1979-03-09 01:41:53.930 ,0,1,0.,24.0,0.,24.0
1979-03-09 01:42:17.930 ,0,1,0.,24.0,0.,24.0
1979-03-09 01:42:41.930 ,1,1,0.,24.0,0.,24.0
1979-03-09 01:43:05.930 ,2,1,0.,24.0,0.,24.0
1979-03-09 01:43:29.930 ,3,1,0.,24.0,0.,24.0
1979-03-09 01:43:53.930 ,4,1,0.,24.0,0.,24.0
1979-03-09 01:44:17.930 ,5,1,0.,24.0,0.,24.0
1979-03-09 01:44:41.930 ,6,1,0.,24.0,0.,24.0
1979-03-09 01:45:05.930 ,7,1,0.,24.0,0.,24.0
1979-03-09 01:45:29.930 ,7,1,0.,24.0,0.,24.0
1979-03-09 01:45:53.930 ,6,1,0.,24.0,0.,24.0
1979-03-09 01:46:17.930 ,5,1,0.,24.0,0.,24.0
1979-03-09 01:46:41.930 ,4,1,0.,24.0,0.,24.0
1979-03-09 01:47:05.930 ,3,1,0.,24.0,0.,24.0
1979-03-09 01:47:29.930 ,2,1,0.,24.0,0.,24.0
1979-03-09 01:47:53.930 ,1,1,0.,24.0,0.,24.0
1979-03-09 01:48:17.930 ,0,1,0.,24.0,0.,24.0
1979-03-09 01:48:41.930 ,0,1,0.,24.0,0.,24.0
1979-03-09 01:49:05.930 ,1,1,0.,24.0,0.,24.0
1979-03-09 01:49:29.930 ,2,1,0.,24.0,0.,24.0
1979-03-09 01:49:53.930 ,3,1,0.,24.0,0.,24.0
1979-03-09 01:50:17.930 ,4,1,0.,24.0,0.,24.0
1979-03-09 01:50:41.930 ,5,1,0.,24.0,0.,24.0
1979-03-09 01:51:05.930 ,6,1,0.,24.0,0.,24.0
1979-03-09 01:51:29.930 ,7,1,0.,24.0,0.,24.0
1979-03-09 01:51:53.930 ,7,1,0.,24.0,0.,24.0
1979-03-09 01:52:17.930 ,6,1,0.,24.0,0.,24.0
1979-03-09 01:52:41.930 ,5,1,0.,24.0,0.,24.0
1979-03-09 01:53:05.930 ,4,1,0.,24.0,0.,24.0
1979-03-09 01:53:29.930 ,3,1,0.,24.0,0.,24.0
1979-03-09 01:53:53.930 ,2,1,0.,24.0,0.,24.0
1979-03-09 01:54:17.930 ,1,1,0.,24.0,0.,24.0
1979-03-09 01:54:41.930 ,0,1,0.,24.0,0.,24.0
1979-03-09 01:55:05.930 ,0,1,0.,24.0,0.,24.0
1979-03-09 01:55:29.930 ,1,1,0.,24.0,0.,24.0
1979-03-09 01:55:53.930 ,2,1,0.,24.0,0.,24.0
1979-03-09 01:56:17.930 ,3,1,0.,24.0,0.,24.0
1979-03-09 01:56:41.930 ,4,1,0.,24.0,0.,24.0
1979-03-09 01:57:05.930 ,5,1,0.,24.0,0.,24.0
1979-03-09 01:57:29.930 ,6,1,0.,24.0,0.,24.0
1979-03-09 01:57:53.930 ,7,1,0.,24.0,0.,24.0
1979-03-09 01:58:17.930 ,7,1,0.,24.0,0.,24.0
1979-03-09 01:58:41.930 ,6,1,0.,24.0,0.,24.0
1979-03-09 01:59:05.930 ,5,1,0.,24.0,0.,24.0
1979-03-09 01:59:29.930 ,4,1,0.,24.0,0.,24.0
1979-03-09 01:59:53.930 ,3,1,0.,24.0,0.,24.0
1979-03-09 02:00:17.930 ,2,1,0.,24.0,0.,24.0
1979-03-09 02:00:41.930 ,1,1,0.,24.0,0.,24.0
1979-03-09 02:01:05.930 ,0,1,0.,24.0,0.,24.0
1979-03-09 02:01:29.930 ,0,1,0.,24.0,0.,24.0
1979-03-09 02:01:53.930 ,1,1,1.,24.0,0.,24.0
1979-03-09 02:02:17.930 ,2,1,0.,24.0,0.,24.0
1979-03-09 02:02:41.930 ,3,1,0.,24.0,0.,24.0
1979-03-09 02:03:05.930 ,4,1,0.,24.0,0.,24.0
1979-03-09 02:03:29.930 ,5,1,0.,24.0,0.,24.0
1979-03-09 02:03:53.930 ,6,1,0.,24.0,0.,24.0
1979-03-09 02:04:17.930 ,7,1,0.,24.0,0.,24.0
1979-03-09 02:04:41.930 ,7,1,0.,24.0,0.,24.0
1979-03-09 02:05:05.930 ,6,1,0.,24.0,0.,24.0
1979-03-09 02:05:29.930 ,5,1,0.,24.0,0.,24.0
1979-03-09 02:05:53.930 ,4,1,0.,24.0,0.,24.0
1979-03-09 02:06:17.930 ,3,1,0.,24.0,0.,24.0
1979-03-09 02:06:41.930 ,2,1,0.,24.0,0.,24.0
1979-03-09 02:07:05.930 ,1,1,0.,24.0,0.,24.0
1979-03-09 02:07:29.930 ,0,1,0.,24.0,0.,24.0
1979-03-09 02:07:53.930 ,0,1,0.,24.0,0.,24.0
1979-03-09 02:08:17.930 ,1,1,0.,24.0,0.,24.0
1979-03-09 02:08:41.930 ,2,1,0.,24.0,0.,24.0
1979-03-09 02:09:05.930 ,3,1,0.,24.0,0.,24.0
1979-03-09 02:09:29.930 ,4,1,0.,24.0,0.,24.0
1979-03-09 02:09:53.930 ,5,1,0.,24.0,0.,24.0
1979-03-09 02:10:17.930 ,6,1,0.,24.0,0.,24.0
1979-03-09 02:10:41.930 ,7,1,0.,24.0,0.,24.0
1979-03-09 02:11:05.930 ,7,1,0.,24.0,0.,24.0
1979-03-09 02:11:29.930 ,6,1,0.,24.0,0.,24.0
1979-03-09 02:11:53.930 ,5,1,0.,24.0,0.,24.0
1979-03-09 02:12:17.930 ,4,1,0.,24.0,0.,24.0
1979-03-09 02:12:41.930 ,3,1,0.,24.0,0.,24.0
1979-03-09 02:13:05.930 ,2,1,0.,24.0,0.,24.0
1979-03-09 02:13:29.930 ,1,1,0.,24.0,0.,24.0
1979-03-09 02:13:53.930 ,0,1,0.,24.0,0.,24.0
1979-03-09 02:14:17.930 ,0,1,0.,24.0,0.,24.0
1979-03-09 02:14:41.930 ,1,1,0.,24.0,0.,24.0
1979-03-09 02:15:05.930 ,2,1,0.,24.0,0.,24.0
1979-03-09 02:15:29.930 ,3,1,0.,24.0,0.,24.0
1979-03-09 02:15:53.930 ,4,1,0.,24.0,0.,24.0
1979-03-09 02:16:17.930 ,5,1,0.,24.0,0.,24.0
1979-03-09 02:16:41.930 ,6,1,0.,24.0,0.,24.0
1979-03-09 02:17:05.930 ,7,1,0.,24.0,0.,24.0
1979-03-09 02:17:29.930 ,7,1,0.,24.0,0.,24.0
1979-03-09 02:17:53.930 ,6,1,0.,24.0,0.,24.0
1979-03-09 02:18:17.930 ,5,1,0.,24.0,0.,24.0
1979-03-09 02:18:41.930 ,4,1,0.,24.0,0.,24.0
1979-03-09 02:19:05.930 ,3,1,0.,24.0,0.,24.0
1979-03-09 02:19:29.930 ,2,1,0.,24.0,0.,24.0
1979-03-09 02:19:53.930 ,1,1,0.,24.0,0.,24.0
1979-03-09 02:20:17.930 ,0,1,0.,24.0,0.,24.0
1979-03-09 02:20:41.930 ,0,1,0.,24.0,0.,24.0
1979-03-09 02:21:05.930 ,1,1,0.,24.0,0.,24.0
1979-03-09 02:21:29.930 ,2,1,0.,24.0,0.,24.0
1979-03-09 02:21:53.930 ,3,1,0.,24.0,0.,24.0
1979-03-09 02:22:17.930 ,4,1,0.,24.0,0.,24.0
1979-03-09 02:22:41.940 ,5,1,0.,24.0,0.,24.0
1979-03-09 02:23:05.940 ,6,1,0.,24.0,0.,24.0
1979-03-09 02:23:29.940 ,7,1,1.,24.0,0.,24.0
1979-03-09 02:23:53.940 ,7,1,0.,24.0,0.,24.0
1979-03-09 02:24:17.940 ,6,1,0.,24.0,0.,24.0
1979-03-09 02:24:41.940 ,5,1,0.,24.0,0.,24.0
1979-03-09 02:25:05.940 ,4,1,0.,24.0,0.,24.0
1979-03-09 02:25:29.940 ,3,1,0.,24.0,0.,24.0
1979-03-09 02:25:53.940 ,2,1,0.,24.0,0.,24.0
1979-03-09 02:26:17.940 ,1,1,0.,24.0,0.,24.0
1979-03-09 02:26:41.940 ,0,1,0.,24.0,0.,24.0
1979-03-09 02:27:05.940 ,0,1,0.,24.0,0.,24.0
1979-03-09 02:27:29.940 ,1,1,0.,24.0,0.,24.0
1979-03-09 02:27:53.940 ,2,1,0.,24.0,0.,24.0
1979-03-09 02:28:17.940 ,3,1,0.,24.0,0.,24.0
1979-03-09 02:28:41.940 ,4,1,0.,24.0,0.,24.0
1979-03-09 02:29:05.940 ,5,1,0.,24.0,0.,24.0
1979-03-09 02:29:29.940 ,6,1,0.,24.0,0.,24.0
1979-03-09 02:29:53.940 ,7,1,0.,24.0,0.,24.0
1979-03-09 02:30:17.940 ,7,1,0.,24.0,0.,24.0
1979-03-09 02:30:41.940 ,6,1,0.,24.0,0.,24.0
1979-03-09 02:31:05.940 ,5,1,0.,24.0,0.,24.0
1979-03-09 02:31:29.940 ,4,1,0.,24.0,0.,24.0
1979-03-09 02:31:53.940 ,3,1,0.,24.0,0.,24.0
1979-03-09 02:32:17.940 ,2,1,0.,24.0,0.,24.0
1979-03-09 02:32:41.940 ,1,1,0.,24.0,0.,24.0
1979-03-09 02:33:05.940 ,0,1,0.,24.0,0.,24.0
1979-03-09 02:33:29.940 ,0,1,0.,24.0,0.,24.0
1979-03-09 02:33:53.940 ,1,1,0.,24.0,0.,24.0
1979-03-09 02:34:17.940 ,2,1,0.,24.0,0.,24.0
1979-03-09 02:34:41.940 ,3,1,0.,24.0,0.,24.0
1979-03-09 02:35:05.940 ,4,1,0.,24.0,0.,24.0
1979-03-09 02:35:29.940 ,5,1,0.,24.0,0.,24.0
1979-03-09 02:35:53.940 ,6,1,0.,24.0,0.,24.0
1979-03-09 02:36:17.940 ,7,1,0.,24.0,0.,24.0
1979-03-09 02:36:41.940 ,7,1,0.,24.0,0.,24.0
1979-03-09 02:37:05.940 ,6,1,0.,24.0,0.,24.0
1979-03-09 02:37:29.940 ,5,1,0.,24.0,0.,24.0
1979-03-09 02:37:53.940 ,4,1,0.,24.0,0.,24.0
1979-03-09 02:38:17.940 ,0,0,,0,,0
1979-03-09 02:39:05.940 ,0,0,0.,24.0,0.,24.0
1979-03-09 02:39:29.940 ,2,1,0.,24.0,0.,24.0
1979-03-09 02:39:53.940 ,6,1,0.,24.0,0.,24.0
1979-03-09 02:40:17.940 ,5,1,0.,24.0,0.,24.0
1979-03-09 02:40:41.940 ,1,1,0.,24.0,0.,24.0
1979-03-09 02:41:05.940 ,2,1,0.,24.0,0.,24.0
1979-03-09 02:41:29.940 ,6,1,0.,24.0,0.,24.0
1979-03-09 02:41:53.940 ,5,1,0.,24.0,0.,24.0
1979-03-09 02:42:17.940 ,1,1,0.,24.0,0.,24.0
1979-03-09 02:42:41.940 ,2,1,0.,24.0,0.,24.0
1979-03-09 02:43:05.940 ,6,1,0.,24.0,0.,24.0
1979-03-09 02:43:29.940 ,5,1,0.,24.0,0.,24.0
1979-03-09 02:43:53.940 ,1,1,0.,24.0,0.,24.0
1979-03-09 02:44:17.940 ,2,1,0.,24.0,0.,24.0
1979-03-09 02:44:41.940 ,6,1,0.,24.0,0.,24.0
1979-03-09 02:45:05.940 ,5,1,0.,24.0,0.,24.0
1979-03-09 02:45:29.940 ,1,1,0.,24.0,0.,24.0
1979-03-09 02:45:53.940 ,2,1,0.,24.0,0.,24.0
1979-03-09 02:46:17.940 ,6,1,0.,24.0,0.,24.0
1979-03-09 02:46:41.940 ,5,1,0.,24.0,0.,24.0
1979-03-09 02:47:05.940 ,1,1,0.,24.0,0.,24.0
1979-03-09 02:47:29.940 ,2,1,0.,24.0,0.,24.0
1979-03-09 02:47:53.940 ,6,1,0.,24.0,0.,24.0
1979-03-09 02:48:17.940 ,5,1,0.,24.0,0.,24.0
1979-03-09 02:48:41.940 ,1,1,0.,24.0,0.,24.0
1979-03-09 02:49:05.940 ,2,1,0.,24.0,0.,24.0
1979-03-09 02:49:29.940 ,6,1,0.,24.0,0.,24.0
1979-03-09 02:49:53.940 ,5,1,0.,24.0,0.,24.0
1979-03-09 02:50:17.940 ,1,1,0.,24.0,0.,24.0
1979-03-09 02:50:41.940 ,2,1,0.,24.0,0.,24.0
1979-03-09 02:51:05.940 ,6,1,0.,24.0,0.,24.0
1979-03-09 02:51:29.940 ,5,1,0.,24.0,0.,24.0
1979-03-09 02:51:53.940 ,1,1,0.,24.0,0.,24.0
1979-03-09 02:52:17.940 ,2,1,0.,24.0,0.,24.0
1979-03-09 02:52:41.940 ,6,1,0.,24.0,0.,24.0
1979-03-09 02:53:05.940 ,5,1,0.,24.0,0.,24.0
1979-03-09 02:53:29.940 ,1,1,0.,24.0,0.,24.0
1979-03-09 02:53:53.940 ,2,1,0.,24.0,0.,24.0
1979-03-09 02:54:17.940 ,6,1,0.,24.0,0.,24.0
1979-03-09 02:54:41.940 ,5,1,0.,24.0,0.,24.0
1979-03-09 02:55:05.940 ,1,1,0.,24.0,0.,24.0
1979-03-09 02:55:29.940 ,2,1,0.,24.0,0.,24.0
1979-03-09 02:55:53.940 ,6,1,0.,24.0,0.,24.0
1979-03-09 02:56:17.940 ,5,1,0.,24.0,0.,24.0
1979-03-09 02:56:41.940 ,1,1,0.,24.0,0.,24.0
1979-03-09 02:57:05.940 ,2,1,0.,24.0,0.,24.0
1979-03-09 02:57:29.940 ,6,1,0.,24.0,0.,24.0
1979-03-09 02:57:53.940 ,5,1,0.,24.0,0.,24.0
1979-03-09 02:58:17.940 ,1,1,0.,24.0,0.,24.0
1979-03-09 02:58:41.940 ,2,1,0.,24.0,0.,24.0
1979-03-09 02:59:05.940 ,6,1,0.,24.0,0.,24.0
1979-03-09 02:59:29.940 ,5,1,0.,24.0,0.,24.0
1979-03-09 02:59:53.940 ,1,1,0.,24.0,0.,24.0
1979-03-09 03:00:17.940 ,2,1,0.,24.0,0.,24.0
